Satellite: PICOSAT 1&2 (T
Catalog number: 26080
Epoch time:      103014.09056240
Element set:     537 
Inclination:      100.2149 deg
RA of node:        66.7873 deg
Eccentricity:    0.0033217
Arg of perigee:    21.4227 deg
Mean anomaly:     338.8455 deg
Mean motion:   14.39049935 rev/day
Decay rate:    7.2100E-006 rev/day^2
Epoch rev:           15385
Checksum:              383

Satellite: PICOSAT 3
Catalog number: 26091
Epoch time:      103013.64178005
Element set:     743 
Inclination:      100.2068 deg
RA of node:        66.3592 deg
Eccentricity:    0.0032435
Arg of perigee:    15.2473 deg
Mean anomaly:     344.9694 deg
Mean motion:   14.40989898 rev/day
Decay rate:    1.2710E-005 rev/day^2
Epoch rev:           15309
Checksum:              302

Satellite: PICOSAT 4
Catalog number: 26092
Epoch time:      103013.18705170
Element set:     655 
Inclination:      100.2021 deg
RA of node:        63.3903 deg
Eccentricity:    0.0036714
Arg of perigee:    20.1435 deg
Mean anomaly:     340.1191 deg
Mean motion:   14.38840424 rev/day
Decay rate:    7.7699E-006 rev/day^2
Epoch rev:           15296
Checksum:              273

Satellite: PICOSAT 5
Catalog number: 26093
Epoch time:      103014.16565181
Element set:     532 
Inclination:      100.2010 deg
RA of node:        68.0135 deg
Eccentricity:    0.0033988
Arg of perigee:    11.6637 deg
Mean anomaly:     348.5317 deg
Mean motion:   14.42125644 rev/day
Decay rate:    2.3410E-005 rev/day^2
Epoch rev:           15347
Checksum:              265

Satellite: PICOSAT 6
Catalog number: 26094
Epoch time:      103013.32172735
Element set:     507 
Inclination:      100.2090 deg
RA of node:        63.4353 deg
Eccentricity:    0.0035982
Arg of perigee:    23.3618 deg
Mean anomaly:     336.9221 deg
Mean motion:   14.38282685 rev/day
Decay rate:    5.4699E-006 rev/day^2
Epoch rev:           15264
Checksum:              300

Satellite: INSAT 3B
Catalog number: 26108
Epoch time:      103011.64967025
Element set:     377 
Inclination:        0.0538 deg
RA of node:        99.4060 deg
Eccentricity:    0.0010707
Arg of perigee:   253.8041 deg
Mean anomaly:      74.3065 deg
Mean motion:    1.00270011 rev/day
Decay rate:   -1.4700E-006 rev/day^2
Epoch rev:            1030
Checksum:              231

Satellite: GOES 11
Catalog number: 26352
Epoch time:      103012.52750551
Element set:     971 
Inclination:        0.0555 deg
RA of node:       113.6172 deg
Eccentricity:    0.0004459
Arg of perigee:   163.0041 deg
Mean anomaly:     272.5887 deg
Mean motion:    1.00261359 rev/day
Decay rate:   -2.2000E-007 rev/day^2
Epoch rev:             986
Checksum:              363

Satellite: EUTELSAT W4
Catalog number: 26369
Epoch time:      103013.79642362
Element set:     337 
Inclination:        0.0445 deg
RA of node:        33.8375 deg
Eccentricity:    0.0004435
Arg of perigee:   200.8022 deg
Mean anomaly:     201.0567 deg
Mean motion:    1.00275710 rev/day
Decay rate:    1.7500E-006 rev/day^2
Epoch rev:             969
Checksum:              257

Satellite: FENGYUN 2B
Catalog number: 26382
Epoch time:      103014.23202736
Element set:     768 
Inclination:        0.6518 deg
RA of node:       287.2693 deg
Eccentricity:    0.0000511
Arg of perigee:   162.2292 deg
Mean anomaly:     211.7565 deg
Mean motion:    1.00265856 rev/day
Decay rate:   -3.0799E-006 rev/day^2
Epoch rev:             935
Checksum:              287

Satellite: SNAP 1
Catalog number: 26386
Epoch time:      103013.88740948
Element set:     802 
Inclination:       98.2494 deg
RA of node:       333.5700 deg
Eccentricity:    0.0011939
Arg of perigee:   334.4229 deg
Mean anomaly:      25.6381 deg
Mean motion:   14.63455357 rev/day
Decay rate:    1.7349E-005 rev/day^2
Epoch rev:           13571
Checksum:              320

Satellite: CHAMP
Catalog number: 26405
Epoch time:      103014.37152468
Element set:     825 
Inclination:       87.2553 deg
RA of node:       163.8138 deg
Eccentricity:    0.0004809
Arg of perigee:    64.4476 deg
Mean anomaly:     295.7254 deg
Mean motion:   15.53973480 rev/day
Decay rate:    1.4151E-004 rev/day^2
Epoch rev:           14126
Checksum:              413

Satellite: EUTELSAT W1
Catalog number: 26487
Epoch time:      103013.00216436
Element set:     341 
Inclination:        0.0486 deg
RA of node:       102.7976 deg
Eccentricity:    0.0003860
Arg of perigee:   182.0647 deg
Mean anomaly:     197.9575 deg
Mean motion:    1.00274920 rev/day
Decay rate:    8.7000E-007 rev/day^2
Epoch rev:             865
Checksum:              278

Satellite: ASTRA 2B
Catalog number: 26494
Epoch time:      103013.00000000
Element set:     251 
Inclination:        0.0178 deg
RA of node:       354.5658 deg
Eccentricity:    0.0005000
Arg of perigee:   302.8402 deg
Mean anomaly:     202.8287 deg
Mean motion:    1.00276704 rev/day
Decay rate:    1.6899E-006 rev/day^2
Epoch rev:             855
Checksum:              240

Satellite: NOAA 16
Catalog number: 26536
Epoch time:      103013.51099553
Element set:     163 
Inclination:       98.8970 deg
RA of node:       322.0708 deg
Eccentricity:    0.0011426
Arg of perigee:    49.9787 deg
Mean anomaly:     310.2393 deg
Mean motion:   14.11880840 rev/day
Decay rate:    8.2999E-007 rev/day^2
Epoch rev:           11906
Checksum:              329

Satellite: SAUDISAT 1A
Catalog number: 26545
Epoch time:      103013.03095324
Element set:     397 
Inclination:       64.5574 deg
RA of node:       144.2130 deg
Eccentricity:    0.0054407
Arg of perigee:   244.4982 deg
Mean anomaly:     115.0534 deg
Mean motion:   14.78867843 rev/day
Decay rate:    2.3919E-005 rev/day^2
Epoch rev:           12381
Checksum:              301

Satellite: UNISAT
Catalog number: 26547
Epoch time:      103013.03545511
Element set:     416 
Inclination:       64.5566 deg
RA of node:       146.5696 deg
Eccentricity:    0.0061490
Arg of perigee:   247.0396 deg
Mean anomaly:     112.4251 deg
Mean motion:   14.79559707 rev/day
Decay rate:    3.6910E-005 rev/day^2
Epoch rev:           12378
Checksum:              416

Satellite: SAUDISAT 1B
Catalog number: 26549
Epoch time:      103013.51451711
Element set:     665 
Inclination:       64.5493 deg
RA of node:       146.6529 deg
Eccentricity:    0.0058867
Arg of perigee:   244.8093 deg
Mean anomaly:     114.6892 deg
Mean motion:   14.77808713 rev/day
Decay rate:    1.9959E-005 rev/day^2
Epoch rev:           12381
Checksum:              440

Satellite: AMSAT OSCAR 40
Catalog number: 26609
Epoch time:      103014.42373129
Element set:     304 
Inclination:        7.9543 deg
RA of node:        70.5875 deg
Eccentricity:    0.7935115
Arg of perigee:   133.0894 deg
Mean anomaly:     327.3710 deg
Mean motion:    1.25596681 rev/day
Decay rate:    2.4999E-007 rev/day^2
Epoch rev:            1014
Checksum:              388

Satellite: GOES 12
Catalog number: 26871
Epoch time:      103014.45037608
Element set:     770 
Inclination:        0.4651 deg
RA of node:        97.7686 deg
Eccentricity:    0.0000765
Arg of perigee:    42.5770 deg
Mean anomaly:      30.0226 deg
Mean motion:    1.00278546 rev/day
Decay rate:   -6.8999E-007 rev/day^2
Epoch rev:             548
Checksum:              422

Satellite: STARSHINE 3
Catalog number: 26929
Epoch time:      103014.55018648
Element set:     672 
Inclination:       67.0211 deg
RA of node:        80.9237 deg
Eccentricity:    0.0007977
Arg of perigee:   329.8942 deg
Mean anomaly:      30.1792 deg
Mean motion:   16.12530047 rev/day
Decay rate:    1.0762E-002 rev/day^2
Epoch rev:            7326
Checksum:              301

Satellite: PICOSAT 9
Catalog number: 26930
Epoch time:      103014.22371013
Element set:     374 
Inclination:       66.9980 deg
RA of node:       342.6566 deg
Eccentricity:    0.0005892
Arg of perigee:   219.5073 deg
Mean anomaly:     140.5599 deg
Mean motion:   14.29728326 rev/day
Decay rate:    1.3699E-006 rev/day^2
Epoch rev:            6733
Checksum:              330

Satellite: PCSAT
Catalog number: 26931
Epoch time:      103014.18294084
Element set:     376 
Inclination:       67.0483 deg
RA of node:       346.7106 deg
Eccentricity:    0.0005301
Arg of perigee:   258.3043 deg
Mean anomaly:     101.7463 deg
Mean motion:   14.29093020 rev/day
Decay rate:    2.9699E-006 rev/day^2
Epoch rev:            6729
Checksum:              296

Satellite: SAPPHIRE
Catalog number: 26932
Epoch time:      103014.23545046
Element set:     371 
Inclination:       67.0548 deg
RA of node:       346.2892 deg
Eccentricity:    0.0006313
Arg of perigee:   238.6176 deg
Mean anomaly:     121.4307 deg
Mean motion:   14.29277912 rev/day
Decay rate:    1.4600E-006 rev/day^2
Epoch rev:            6732
Checksum:              393

Satellite: ENVISAT
Catalog number: 27386
Epoch time:      103014.47519830
Element set:     843 
Inclination:       98.5493 deg
RA of node:        83.5321 deg
Eccentricity:    0.0000879
Arg of perigee:    98.6867 deg
Mean anomaly:     261.4417 deg
Mean motion:   14.32254806 rev/day
Decay rate:    2.1599E-006 rev/day^2
Epoch rev:            4572
Checksum:              335

Satellite: IDEFIX/ARIANE 
Catalog number: 27422
Epoch time:      103014.21715133
Element set:     208 
Inclination:       98.6998 deg
RA of node:        93.5737 deg
Eccentricity:    0.0011817
Arg of perigee:   251.0493 deg
Mean anomaly:     108.9407 deg
Mean motion:   14.27948459 rev/day
Decay rate:    2.9099E-006 rev/day^2
Epoch rev:            3641
Checksum:              328

